Location: Recife
(8.0585°S, 34.8848°W)
Time: 10:21:52
(UTC-03:00)

Courier 1B Rocket - Pass Details

Date: 22 April 2026
Orbit: 920 x 1201 km, 28.2° (Epoch: 13 May)

Event Time Altitude Azimuth Distance (km) Brightness Sun altitude
Rises 01:22:06 0° 302° (WNW) 3,613 - -59.2°
Reaches altitude 10° 01:24:45 10° 304° (WNW) 2,643 - -58.6°
Maximum altitude 01:31:04 78° 29° (NNE) 939 - -57.0°
Drops below altitude 10° 01:37:19 10° 115° (ESE) 2,612 - -55.5°
Exits shadow 01:39:55 - 116° (ESE) 3,564 8.4 -54.9°
Sets 01:39:56 0° 116° (ESE) 3,568 8.4 -54.9°
